Погода в Гурово

Россия / Омская область     56°18′06″N   75°08′40″E
темп.,
°C
ветер,
м/с
пор.,
м/с
влажн.,
%
обл.,
%
осадки,
мм/ч
давл.,
гПа
погр.,
м
4 марта, чт
чт400:00−8ююз61394100 1.4 1010697
03:00−7ююз61294100 0.5 1008686
06:00−6ююз61294100 1.1 1008657
09:00−4ююз61294100 0.5 1005731
12:00−2ююз71294100 0.9 1004862
15:000ююз71299100 1.0 1003907
18:000ююз81497100 2.2 1001935
21:00−1ююз81592100 0.9 1000871
5 марта, пт
пт500:00−1ююз81492100 1.1 1000747
03:00−2ююз61196100 0.6 998670
06:00−2зюз51097100 2.4 1000641
09:00−8зюз61392100 0.5 1003477
12:00−7юз6118778 0.5 1006478
15:00−5ююз8149283 0.2 10051073
18:00−5юз8149392 1.4 1006954
21:00−5юз81693100 0.7 1004829
6 марта, сб
сб600:00−2юз81593100 1.1 1005910
03:00−3юз71495100 0.8 1004772
06:00−4юз71395100 1.7 1005714
09:00−4юз71395100 1.1 1003748
12:00−2юз71395100 2.3 1003834
15:00−2з81286100 1.6 10041097
18:00−6зюз6138466 1.6 1007663
21:00−10зюз6148924 0.0 1009494
7 марта, вс
вс700:00−14зюз4109212 0.0 1012193
03:00−16зюз37950 0.0 1013103
06:00−17юз349513 0.0 101435
09:00−14ю349299 0.0 1013104
12:00−10юв468999 0.1 1010257
15:00−7юв61095100 2.2 1006508
18:00−1ю41198100 3.7 1004614
21:000юз81397100 0.9 1002841
8 марта, пн
пн800:00−1зюз71198100 2.1 1003640
03:00−9зсз4795100 0.8 1005255
06:00−12сз3796100 0.8 1008156
09:00−13сз3696100 0.0 1010161
12:00−9сз3493100 0.0 1011279
15:00−8зсз348746 0.0 1012457
18:00−11з239223 0.0 101328
21:00−15зюз239421 0.0 101520